Home > Weather > Kinshasa > Past weeks

Flag for Congo Dem. Rep. Past Weather in Kinshasa, Congo Dem. Rep. — Yesterday and Last 2 Weeks

Now
70 °F

Clear.


Feels Like: 70 °F
Forecast: 72 / 90 °F
Wind: 1 mph from Southwest

Location: Brazzaville / Maya-Maya

Current Time: May 24, 2016 at 7:11:02 AM

Latest Report: May 24, 2016 at 6:00 AM


Visibility: 5 mi

Pressure: 30.04 "Hg

Humidity: 88%

Dew Point: 66 °F

Location of KinshasaLocation

Past Weather in Kinshasa — Graph

°F

Kinshasa Temperature Yesterday

Maximum temperature yesterday: 88 °F (at 2:00 PM)
Minimum temperature yesterday: 70 °F (at 5:00 AM)
Average temperature yesterday: 78 °F

High & Low Weather Summary for the Past Weeks

 TemperatureHumidityPressure
High93 °F (May 11, 3:00 PM)100% (May 16, 7:00 AM)30.09 "Hg (May 16, 7:00 AM)
Low70 °F (May 21, 6:00 AM)44% (May 20, 4:00 PM)29.80 "Hg (May 12, 3:00 PM)
Average80 °F78%29.94 "Hg
* Reported May 9 5:00 AM — May 24 5:00 AM, Kinshasa, Weather by CustomWeather, © 2016

Note: Actual official high and low records may vary slightly from our data, if they occured in-between our weather recording intervals... More about our weather records

Advertising

Kinshasa Weather History for the Previous 24 Hours

Scroll right to see more
 ConditionsComfort  
Time TempWeatherWind HumidityBarometerVisibility
5:00 AM
Tue, May 24
70 °FClear.2 mph94%30.04 "Hg5 mi
4:00 AM70 °FClear.2 mph94%30.04 "Hg5 mi
3:00 AM72 °FClear.3 mph88%30.04 "Hg5 mi
2:00 AM72 °FClear.3 mph88%30.04 "Hg5 mi
1:00 AM73 °FClear.3 mph83%30.07 "Hg5 mi
12:00 AM73 °FClear.3 mph83%30.04 "Hg5 mi
11:00 PM
Mon, May 23
73 °FClear.3 mph89%30.04 "Hg5 mi
10:00 PM75 °FClear.3 mph83%30.04 "Hg5 mi
9:00 PM77 °FClear.6 mph79%30.04 "Hg5 mi
8:00 PM79 °FClear.5 mph74%30.01 "Hg5 mi
7:00 PM81 °FClear.5 mph70%29.98 "Hg5 mi
6:00 PM82 °FClear.7 mph66%29.95 "Hg5 mi
5:00 PM86 °FClear.9 mph59%29.95 "Hg5 mi
4:00 PM88 °FClear.7 mph55%29.95 "Hg5 mi
3:00 PM88 °FPassing clouds.6 mph55%29.95 "Hg5 mi
2:00 PM88 °FPassing clouds.8 mph55%29.98 "Hg5 mi
1:00 PM86 °FPassing clouds.7 mph55%30.01 "Hg5 mi
12:00 PM82 °FScattered clouds.7 mph66%30.04 "Hg5 mi
11:00 AM81 °FPartly sunny.7 mph70%30.07 "Hg5 mi
10:00 AM79 °FPartly sunny.7 mph74%30.09 "Hg5 mi
9:00 AM75 °FPartly sunny.6 mph83%30.09 "Hg4 mi
8:00 AM73 °FPartly sunny.6 mph89%30.07 "Hg4 mi
7:00 AM72 °FClear.5 mph94%30.04 "Hg4 mi
Weather by CustomWeather, © 2016

See weather overviewHow to use our weather pages